TimeCST,TemperatureF,Dew PointF,Humidity,Sea Level PressureIn,VisibilityMPH,Wind Direction,Wind SpeedMPH,Gust SpeedMPH,PrecipitationIn,Events,Conditions,WindDirDegrees,DateUTC
12:01 AM,9.0,1.9,73,30.29,10.0,North,17.3,-,N/A,,Partly Cloudy,360,2014-02-05 06:01:00
12:24 AM,9.0,1.9,73,30.30,10.0,North,16.1,-,N/A,,Mostly Cloudy,360,2014-02-05 06:24:00
12:32 AM,9.0,1.9,73,30.31,10.0,North,17.3,-,N/A,,Mostly Cloudy,360,2014-02-05 06:32:00
12:53 AM,9.0,1.0,70,30.41,10.0,North,18.4,-,N/A,,Overcast,360,2014-02-05 06:53:00
1:53 AM,8.1,-0.0,70,30.44,10.0,North,24.2,31.1,N/A,,Overcast,360,2014-02-05 07:53:00
2:50 AM,6.8,-0.4,72,30.34,10.0,North,21.9,32.2,N/A,,Overcast,360,2014-02-05 08:50:00
2:53 AM,7.0,-0.9,70,30.45,10.0,North,25.3,31.1,N/A,,Overcast,360,2014-02-05 08:53:00
3:53 AM,6.1,-2.0,69,30.49,10.0,North,24.2,28.8,N/A,,Overcast,350,2014-02-05 09:53:00
4:53 AM,3.9,-4.0,70,30.52,10.0,North,21.9,28.8,N/A,,Overcast,360,2014-02-05 10:53:00
5:53 AM,3.9,-5.1,66,30.57,10.0,North,20.7,-,N/A,,Overcast,360,2014-02-05 11:53:00
6:53 AM,3.0,-6.0,66,30.60,10.0,North,20.7,26.5,N/A,,Overcast,360,2014-02-05 12:53:00
7:53 AM,3.0,-6.0,66,30.61,10.0,North,19.6,-,N/A,,Overcast,360,2014-02-05 13:53:00
8:34 AM,1.9,-6.0,69,30.47,10.0,North,21.9,-,N/A,,Overcast,10,2014-02-05 14:34:00
8:53 AM,3.0,-6.0,66,30.62,10.0,North,21.9,-,N/A,,Scattered Clouds,10,2014-02-05 14:53:00
9:24 AM,3.0,-6.0,66,30.51,10.0,North,16.1,25.3,N/A,,Mostly Cloudy,10,2014-02-05 15:24:00
9:53 AM,3.9,-5.1,66,30.68,10.0,North,15.0,-,N/A,,Overcast,10,2014-02-05 15:53:00
10:53 AM,5.0,-5.1,63,30.68,10.0,North,17.3,-,N/A,,Mostly Cloudy,10,2014-02-05 16:53:00
11:53 AM,6.1,-4.0,63,30.69,10.0,North,15.0,-,N/A,,Overcast,10,2014-02-05 17:53:00
12:53 PM,7.0,-2.9,64,30.68,10.0,NNE,15.0,-,N/A,,Overcast,20,2014-02-05 18:53:00
1:53 PM,7.0,-2.9,64,30.67,9.0,North,8.1,-,N/A,,Overcast,10,2014-02-05 19:53:00
2:39 PM,7.0,-2.9,64,30.48,10.0,NNE,11.5,-,N/A,,Overcast,20,2014-02-05 20:39:00
2:53 PM,7.0,-2.9,64,30.63,10.0,North,12.7,-,N/A,,Overcast,360,2014-02-05 20:53:00
3:19 PM,8.1,-2.9,61,30.48,10.0,NNE,11.5,-,N/A,,Overcast,30,2014-02-05 21:19:00
3:51 PM,8.6,-2.2,62,30.48,10.0,North,11.5,-,N/A,,Overcast,10,2014-02-05 21:51:00
3:53 PM,8.1,-2.9,61,30.63,10.0,North,10.4,-,N/A,,Overcast,10,2014-02-05 21:53:00
4:53 PM,7.0,-2.9,64,30.62,10.0,NNE,12.7,-,0.00,,Overcast,30,2014-02-05 22:53:00
5:53 PM,7.0,-2.9,64,30.63,4.0,NNE,12.7,-,0.00,Snow,Light Snow,20,2014-02-05 23:53:00
6:53 PM,6.1,-2.9,67,30.63,4.0,NNE,11.5,-,0.00,Snow,Light Snow,20,2014-02-06 00:53:00
7:53 PM,6.1,-0.9,73,30.65,4.0,NNE,9.2,-,0.01,Snow,Light Snow,20,2014-02-06 01:53:00
8:53 PM,6.1,-0.9,73,30.64,2.5,NE,12.7,-,0.00,Snow,Light Snow,40,2014-02-06 02:53:00
9:03 PM,6.1,-0.9,73,30.47,2.5,NE,10.4,-,0.00,Snow,Light Snow,40,2014-02-06 03:03:00
9:07 PM,6.1,-0.9,73,30.47,3.0,NE,9.2,-,0.00,Snow,Light Snow,40,2014-02-06 03:07:00
9:53 PM,6.1,-2.0,69,30.64,10.0,NE,8.1,-,0.01,,Overcast,40,2014-02-06 03:53:00
10:53 PM,6.1,-2.0,69,30.64,10.0,NNE,11.5,-,N/A,,Overcast,30,2014-02-06 04:53:00
11:53 PM,6.1,-2.0,69,30.64,3.0,ENE,9.2,-,0.00,Snow,Light Snow,60,2014-02-06 05:53:00